Location: Artiguedieu
(43.5000°N, 0.5454°E)
Time: 21:09:23
(UTC+00:00)

Vanguard 1 - Pass Details

Date: 30 July 2021
Orbit: 652 x 3831 km, 34.3° (Epoch: 19 September)

Event Time Altitude Azimuth Distance (km) Brightness Sun altitude
Rises 17:05:34 0° 269° (W) 4,805 15.1 23.0°
Reaches altitude 10° 17:09:03 10° 256° (WSW) 4,235 14.9 22.4°
Maximum altitude 17:18:08 25° 207° (SSW) 4,116 13.7 20.7°
Drops below altitude 10° 17:31:25 10° 162° (SSE) 6,312 14.0 18.4°
Sets 17:38:31 0° 152° (SSE) 7,707 14.3 17.1°
